�������l�o���
Date,Time,MP-1(��Sv/h),MP-2(��Sv/h),MP-3(��Sv/h),MP-4(��Sv/h),MP-5(��Sv/h),MP-6(��Sv/h),MP-7(��Sv/h),MP-8(��Sv/h),����,����(m/s),���J
2021/08/29,00:00,0.606,0.903,0.571,1.086,0.772,0.367,0.632,0.589,�k,4.0,��
2021/08/29,00:10,0.606,0.901,0.571,1.088,0.773,0.367,0.631,0.590,�k�k��,3.1,��
2021/08/29,00:20,0.605,0.901,0.571,1.086,0.772,0.366,0.631,0.589,�k�k��,2.0,��
2021/08/29,00:30,0.605,0.902,0.573,1.089,0.772,0.366,0.631,0.590,�k�k��,1.7,��
2021/08/29,00:40,0.607,0.904,0.570,1.086,0.773,0.366,0.631,0.589,�k�k��,1.5,��
2021/08/29,00:50,0.605,0.903,0.571,1.088,0.774,0.368,0.632,0.591,�k,1.7,��
2021/08/29,01:00,0.606,0.904,0.571,1.087,0.774,0.367,0.632,0.589,��,0.6,��
2021/08/29,01:10,0.606,0.903,0.571,1.086,0.773,0.367,0.631,0.589,-,CALM,��
2021/08/29,01:20,0.606,0.902,0.572,1.085,0.772,0.366,0.633,0.588,�k�k��,1.2,��
2021/08/29,01:30,0.605,0.900,0.571,1.087,0.773,0.367,0.630,0.590,�k,0.6,��
2021/08/29,01:40,0.605,0.903,0.571,1.088,0.773,0.368,0.631,0.591,��,0.6,��
2021/08/29,01:50,0.604,0.903,0.572,1.087,0.771,0.368,0.631,0.589,�k,1.2,��
2021/08/29,02:00,0.604,0.904,0.572,1.090,0.772,0.367,0.631,0.590,���k��,0.8,��
2021/08/29,02:10,0.604,0.901,0.570,1.088,0.773,0.366,0.632,0.590,�k�k��,0.9,��
2021/08/29,02:20,0.605,0.904,0.571,1.089,0.772,0.366,0.631,0.590,�k�k��,1.5,��
2021/08/29,02:30,0.606,0.902,0.572,1.087,0.774,0.367,0.632,0.590,�k��,0.6,��
2021/08/29,02:40,0.607,0.901,0.571,1.087,0.773,0.366,0.632,0.590,��,1.2,��
2021/08/29,02:50,0.607,0.903,0.571,1.089,0.774,0.367,0.630,0.588,���k��,1.1,��
2021/08/29,03:00,0.604,0.902,0.570,1.086,0.774,0.367,0.632,0.590,�k��,1.2,��
2021/08/29,03:10,0.604,0.902,0.572,1.089,0.772,0.368,0.630,0.589,�k,1.5,��
2021/08/29,03:20,0.605,0.904,0.571,1.086,0.774,0.366,0.631,0.589,�k��,0.8,��
2021/08/29,03:30,0.605,0.901,0.571,1.090,0.771,0.367,0.632,0.590,�k�k��,1.7,��
2021/08/29,03:40,0.605,0.902,0.569,1.089,0.774,0.368,0.631,0.591,�k�k��,2.5,��
2021/08/29,03:50,0.605,0.902,0.571,1.087,0.772,0.367,0.631,0.590,�k,3.3,��
2021/08/29,04:00,0.603,0.904,0.570,1.088,0.772,0.367,0.630,0.589,�k,2.9,��
2021/08/29,04:10,0.604,0.904,0.570,1.088,0.772,0.366,0.631,0.590,�k,2.3,��
2021/08/29,04:20,0.604,0.903,0.571,1.089,0.773,0.366,0.631,0.588,�k�k��,1.9,��
2021/08/29,04:30,0.603,0.904,0.571,1.089,0.773,0.366,0.631,0.589,�k�k��,2.3,��
2021/08/29,04:40,0.603,0.903,0.571,1.088,0.773,0.366,0.632,0.590,�k�k��,1.7,��
2021/08/29,04:50,0.604,0.903,0.571,1.087,0.773,0.368,0.631,0.590,�k��,1.9,��
2021/08/29,05:00,0.604,0.904,0.569,1.087,0.773,0.366,0.630,0.590,�k��,2.3,��
2021/08/29,05:10,0.605,0.903,0.571,1.089,0.772,0.367,0.631,0.592,�k��,2.0,��
2021/08/29,05:20,0.604,0.905,0.570,1.087,0.773,0.365,0.631,0.590,�k��,2.0,��
2021/08/29,05:30,0.604,0.903,0.570,1.087,0.772,0.365,0.629,0.589,�k�k��,1.5,��
2021/08/29,05:40,0.602,0.904,0.569,1.090,0.772,0.365,0.630,0.589,�k�k��,0.9,��
2021/08/29,05:50,0.604,0.905,0.572,1.090,0.772,0.367,0.632,0.590,�k��,1.5,��
2021/08/29,06:00,0.605,0.903,0.570,1.089,0.773,0.366,0.631,0.590,�k�k��,1.7,��
2021/08/29,06:10,0.604,0.903,0.572,1.090,0.774,0.366,0.630,0.588,�k�k��,2.2,��
2021/08/29,06:20,0.605,0.905,0.571,1.088,0.774,0.367,0.630,0.591,�k�k��,2.6,��
2021/08/29,06:30,0.606,0.903,0.571,1.091,0.774,0.367,0.632,0.590,�k,2.6,��
2021/08/29,06:40,0.606,0.904,0.570,1.092,0.773,0.368,0.631,0.589,�k,2.2,��
2021/08/29,06:50,0.605,0.904,0.572,1.089,0.773,0.366,0.631,0.589,�k,1.9,��
2021/08/29,07:00,0.606,0.904,0.573,1.092,0.773,0.367,0.632,0.591,�k,1.2,��
2021/08/29,07:10,0.605,0.905,0.571,1.090,0.771,0.367,0.632,0.590,�k,1.7,��
2021/08/29,07:20,0.604,0.904,0.571,1.091,0.772,0.367,0.630,0.591,�k,2.0,��
2021/08/29,07:30,0.603,0.901,0.569,1.089,0.774,0.366,0.632,0.590,�k,2.0,��
2021/08/29,07:40,0.602,0.902,0.571,1.091,0.771,0.365,0.631,0.590,�k,1.5,��
2021/08/29,07:50,0.606,0.904,0.571,1.090,0.772,0.366,0.632,0.590,�k��,0.8,��
2021/08/29,08:00,0.605,0.903,0.570,1.090,0.774,0.367,0.633,0.591,���k��,2.0,��
2021/08/29,08:10,0.605,0.904,0.570,1.090,0.773,0.367,0.633,0.590,���k��,2.3,��
2021/08/29,08:20,0.603,0.903,0.571,1.088,0.772,0.366,0.632,0.590,���k��,1.9,��
2021/08/29,08:30,0.602,0.902,0.571,1.088,0.772,0.366,0.633,0.588,���쓌,2.6,��
2021/08/29,08:40,0.604,0.903,0.570,1.090,0.773,0.366,0.632,0.589,��,2.5,��
2021/08/29,08:50,0.605,0.902,0.570,1.091,0.773,0.366,0.631,0.587,��,3.4,��
2021/08/29,09:00,0.604,0.902,0.569,1.090,0.774,0.366,0.632,0.590,��,2.8,��
2021/08/29,09:10,0.604,0.903,0.568,1.091,0.772,0.365,0.632,0.588,���쓌,2.9,��
2021/08/29,09:20,0.605,0.903,0.568,1.090,0.772,0.366,0.631,0.587,�쓌,3.1,��
2021/08/29,09:30,0.603,0.906,0.569,1.089,0.772,0.365,0.632,0.590,��,3.4,��
2021/08/29,09:40,0.604,0.905,0.570,1.090,0.773,0.365,0.631,0.588,���쓌,3.0,��
2021/08/29,09:50,0.604,0.905,0.570,1.089,0.772,0.365,0.633,0.588,�쓌,3.3,��
2021/08/29,10:00,0.604,0.905,0.571,1.089,0.773,0.365,0.631,0.589,�쓌,2.8,��
2021/08/29,10:10,0.604,0.905,0.569,1.089,0.773,0.365,0.629,0.589,�쓌,3.2,��
2021/08/29,10:20,0.604,0.904,0.570,1.089,0.775,0.365,0.631,0.588,���쓌,3.2,��
2021/08/29,10:30,0.608,0.904,0.570,1.089,0.772,0.366,0.630,0.589,��,2.8,��
2021/08/29,10:40,0.605,0.904,0.569,1.091,0.773,0.366,0.631,0.590,��,3.2,��
2021/08/29,10:50,0.607,0.902,0.570,1.092,0.775,0.365,0.630,0.590,�쓌,3.9,��
2021/08/29,11:00,0.609,0.905,0.572,1.090,0.776,0.367,0.631,0.588,���쓌,3.5,��
2021/08/29,11:10,0.605,0.906,0.571,1.092,0.776,0.365,0.630,0.589,�쓌,4.6,��
2021/08/29,11:20,0.606,0.905,0.569,1.089,0.775,0.367,0.632,0.589,��쓌,4.0,��
2021/08/29,11:30,0.605,0.907,0.572,1.092,0.775,0.366,0.632,0.589,��쓌,4.6,��
2021/08/29,11:40,0.607,0.908,0.571,1.091,0.775,0.366,0.631,0.588,��쓌,4.0,��
2021/08/29,11:50,0.608,0.908,0.571,1.092,0.775,0.367,0.633,0.590,��,3.4,��
2021/08/29,12:00,0.607,0.906,0.571,1.089,0.777,0.366,0.632,0.589,��쓌,3.8,��
2021/08/29,12:10,0.606,0.908,0.571,1.088,0.777,0.366,0.632,0.590,�쓌,4.2,��
2021/08/29,12:20,0.607,0.907,0.571,1.087,0.777,0.367,0.634,0.590,��쓌,3.9,��
2021/08/29,12:30,0.607,0.909,0.571,1.088,0.779,0.366,0.631,0.590,��쓌,4.0,��
2021/08/29,12:40,0.608,0.907,0.573,1.090,0.778,0.367,0.632,0.590,��쓌,5.7,��
2021/08/29,12:50,0.607,0.909,0.573,1.090,0.777,0.368,0.632,0.590,��쓌,5.6,��
2021/08/29,13:00,0.609,0.909,0.572,1.094,0.778,0.367,0.632,0.590,��쓌,6.5,��
2021/08/29,13:10,0.607,0.908,0.572,1.092,0.777,0.367,0.631,0.589,��쓌,4.5,��
2021/08/29,13:20,0.608,0.911,0.573,1.094,0.777,0.366,0.632,0.590,��쓌,6.4,��
2021/08/29,13:30,0.606,0.909,0.572,1.093,0.779,0.367,0.632,0.590,��쓌,6.3,��
2021/08/29,13:40,0.609,0.909,0.574,1.093,0.779,0.367,0.633,0.590,��쓌,6.0,��
2021/08/29,13:50,0.611,0.911,0.575,1.094,0.777,0.368,0.631,0.590,��쓌,7.4,��
2021/08/29,14:00,0.607,0.908,0.574,1.092,0.780,0.367,0.633,0.590,�쓌,4.9,��
2021/08/29,14:10,0.609,0.910,0.572,1.094,0.780,0.367,0.633,0.591,�쓌,6.3,��
2021/08/29,14:20,0.608,0.909,0.575,1.093,0.780,0.368,0.633,0.591,��쓌,5.7,��
2021/08/29,14:30,0.609,0.909,0.572,1.094,0.780,0.366,0.633,0.591,��쓌,7.1,��
2021/08/29,14:40,0.608,0.908,0.574,1.096,0.779,0.366,0.633,0.592,��쓌,6.7,��
2021/08/29,14:50,0.608,0.911,0.573,1.093,0.780,0.367,0.633,0.590,��쓌,5.7,��
2021/08/29,15:00,0.609,0.910,0.574,1.094,0.781,0.367,0.633,0.591,��쓌,6.8,��
2021/08/29,15:10,0.608,0.910,0.575,1.094,0.782,0.367,0.632,0.591,��쓌,6.2,��
2021/08/29,15:20,0.608,0.910,0.574,1.095,0.780,0.366,0.632,0.591,��쓌,6.6,��
2021/08/29,15:30,0.608,0.909,0.574,1.094,0.780,0.367,0.632,0.593,��쓌,6.9,��
2021/08/29,15:40,0.608,0.912,0.573,1.094,0.781,0.367,0.631,0.591,��쓌,5.9,��
2021/08/29,15:50,0.609,0.910,0.574,1.093,0.781,0.366,0.632,0.591,��쓌,5.4,��
2021/08/29,16:00,0.609,0.909,0.574,1.095,0.780,0.366,0.632,0.590,��쓌,6.0,��
2021/08/29,16:10,0.609,0.910,0.574,1.092,0.781,0.367,0.632,0.590,��쓌,6.3,��
2021/08/29,16:20,0.610,0.910,0.573,1.093,0.780,0.367,0.631,0.590,�쓌,5.4,��
2021/08/29,16:30,0.608,0.912,0.573,1.093,0.782,0.368,0.630,0.590,��쓌,6.6,��
2021/08/29,16:40,0.608,0.911,0.573,1.095,0.779,0.366,0.634,0.591,��쓌,6.7,��
2021/08/29,16:50,0.609,0.912,0.573,1.097,0.780,0.368,0.632,0.591,��쓌,7.4,��
2021/08/29,17:00,0.609,0.909,0.573,1.094,0.781,0.366,0.633,0.591,��쓌,7.5,��
2021/08/29,17:10,0.609,0.912,0.572,1.096,0.781,0.366,0.632,0.590,��쓌,7.1,��
2021/08/29,17:20,0.610,0.912,0.572,1.095,0.780,0.366,0.633,0.590,��쓌,6.8,��
2021/08/29,17:30,0.609,0.912,0.574,1.095,0.782,0.366,0.632,0.591,��쓌,7.8,��
2021/08/29,17:40,0.609,0.912,0.573,1.094,0.779,0.366,0.632,0.589,��쓌,7.3,��
2021/08/29,17:50,0.610,0.911,0.574,1.096,0.782,0.366,0.630,0.591,��쓌,6.4,��
2021/08/29,18:00,0.610,0.909,0.572,1.096,0.778,0.366,0.632,0.590,��쓌,5.2,��
2021/08/29,18:10,0.608,0.909,0.573,1.096,0.783,0.367,0.633,0.591,��,5.6,��
2021/08/29,18:20,0.608,0.913,0.575,1.095,0.780,0.367,0.633,0.591,��쓌,4.9,��
2021/08/29,18:30,0.608,0.913,0.573,1.095,0.782,0.367,0.632,0.590,��,4.4,��
2021/08/29,18:40,0.607,0.914,0.574,1.095,0.781,0.369,0.633,0.591,��,4.0,��
2021/08/29,18:50,0.608,0.913,0.574,1.097,0.781,0.369,0.632,0.590,��,3.5,��
2021/08/29,19:00,0.607,0.912,0.573,1.096,0.782,0.368,0.632,0.589,��,4.5,��
2021/08/29,19:10,0.608,0.911,0.575,1.099,0.782,0.367,0.633,0.592,��,5.2,��
2021/08/29,19:20,0.608,0.914,0.576,1.098,0.782,0.369,0.633,0.590,��,4.0,��
2021/08/29,19:30,0.609,0.912,0.575,1.096,0.781,0.367,0.631,0.591,��,5.0,��
2021/08/29,19:40,0.608,0.915,0.575,1.098,0.783,0.367,0.633,0.590,��,3.9,��
2021/08/29,19:50,0.610,0.915,0.576,1.096,0.783,0.368,0.633,0.590,��,4.1,��
2021/08/29,20:00,0.611,0.915,0.575,1.097,0.783,0.368,0.634,0.590,��,4.2,��
2021/08/29,20:10,0.610,0.915,0.574,1.095,0.784,0.368,0.633,0.589,��쐼,3.6,��
2021/08/29,20:20,0.611,0.912,0.576,1.099,0.783,0.368,0.634,0.590,��,3.3,��
2021/08/29,20:30,0.610,0.914,0.577,1.098,0.783,0.367,0.633,0.591,��,3.4,��
2021/08/29,20:40,0.611,0.914,0.575,1.096,0.783,0.367,0.633,0.593,��,4.5,��
2021/08/29,20:50,0.611,0.916,0.576,1.100,0.782,0.369,0.632,0.591,��,5.6,��
2021/08/29,21:00,0.610,0.915,0.575,1.098,0.783,0.368,0.633,0.591,��,4.9,��
2021/08/29,21:10,0.610,0.914,0.575,1.099,0.783,0.368,0.633,0.591,��,4.4,��
2021/08/29,21:20,0.609,0.913,0.576,1.098,0.782,0.367,0.634,0.589,��,4.3,��
2021/08/29,21:30,0.610,0.914,0.574,1.099,0.784,0.368,0.634,0.591,��,4.1,��
2021/08/29,21:40,0.610,0.915,0.577,1.096,0.781,0.369,0.632,0.592,��,3.5,��
2021/08/29,21:50,0.610,0.915,0.577,1.098,0.783,0.367,0.634,0.594,��쐼,3.7,��
2021/08/29,22:00,0.610,0.913,0.576,1.100,0.783,0.368,0.633,0.591,��,4.4,��
2021/08/29,22:10,0.612,0.915,0.577,1.099,0.784,0.368,0.633,0.592,��,4.5,��
2021/08/29,22:20,0.611,0.916,0.576,1.098,0.782,0.368,0.632,0.590,��,4.0,��
2021/08/29,22:30,0.610,0.917,0.577,1.099,0.785,0.368,0.631,0.591,��,4.7,��
2021/08/29,22:40,0.610,0.915,0.576,1.100,0.783,0.366,0.633,0.592,��,5.0,��
2021/08/29,22:50,0.610,0.917,0.577,1.098,0.782,0.369,0.634,0.591,��,4.2,��
2021/08/29,23:00,0.613,0.916,0.577,1.099,0.786,0.369,0.633,0.592,��,3.7,��
2021/08/29,23:10,0.611,0.915,0.575,1.097,0.785,0.368,0.633,0.591,��,3.7,��
2021/08/29,23:20,0.612,0.916,0.576,1.099,0.782,0.369,0.635,0.590,��,3.9,��
2021/08/29,23:30,0.611,0.915,0.576,1.097,0.783,0.369,0.632,0.591,��,2.6,��
2021/08/29,23:40,0.611,0.915,0.576,1.101,0.785,0.369,0.634,0.593,��쓌,1.1,��
2021/08/29,23:50,0.611,0.913,0.578,1.099,0.784,0.369,0.634,0.593,��쐼,1.2,��
